Weather History for Melbourne Airport, VC

Change the Weather History Date:

Saturday, August 31, 2013

  Actual Average Record
Temperature  
Mean Temperature 59 °F -  
Max Temperature 70 °F 60 °F 71 °F (1999)
Min Temperature 48 °F 43 °F 39 °F (1996)
Degree Days  
Heating Degree Days 6    
Growing Degree Days 9 (Base 50)    
Moisture  
Dew Point 48 °F    
Average Humidity 68    
Maximum Humidity 100    
Minimum Humidity 33    
Precipitation  
Precipitation 0.01 in 0.06 in - ()
Sea Level Pressure  
Sea Level Pressure 30.08 in    
Wind  
Wind Speed 11 mph ()    
Max Wind Speed 22 mph    
Max Gust Speed 30 mph    
Visibility 8.3 miles    
Events Rain    
Averages and records for this station are not official NWS values.
T = Trace of Precipitation, MM = Missing Value Source: Averaged Metar Reports

Daily Weather History Graph

Daily Weather History Graph

Search for Another Location

Airport:

Trip Planner

Search our weather history database for the weather conditions in past years. The results will help you decide how hot, cold, wet, or windy it might be!

Date:

Astronomy

Aug. 31, 2013 Rise Set
Actual Time 6:44 AM AEST 5:58 PM AEST
Civil Twilight 6:17 AM AEST 6:25 PM AEST
Nautical Twilight 5:47 AM AEST 6:55 PM AEST
Astronomical Twilight 5:16 AM AEST 7:25 PM AEST
Moon 2:59 AM AEST (8/31) 1:13 PM AEST (8/31)
Length of Visible Light 12h 07m
Length of Day
11h 14m
Waning Crescent, 26% of the Moon is Illuminated
Aug 31
Waning Crescent
Sep 5
New
Sep 13
First Quarter
Sep 19
Full
Sep 27
Last Quarter

Hourly Weather History & Observations

Time (AEST) Temp. Dew Point Humidity Pressure Visibility Wind Dir Wind Speed Gust Speed Precip Events Conditions
12:00 AM 53 °F 49 °F 80% 30.03 in 19 mi North 9.2 mph - -   Partly Cloudy
12:00 AM 53.6 °F 48.2 °F 82% 30.01 in - North 9.2 mph - N/A   Clear
12:30 AM 53.6 °F 50.0 °F 88% 30.01 in 3.7 mi NW 5.8 mph - N/A Rain Light Rain
12:47 AM 53.6 °F 50.0 °F 88% 30.01 in 6.2 mi North 2.3 mph - N/A   Mostly Cloudy
1:00 AM 53 °F 51 °F 88% 30.03 in - North 4.6 mph - -  
1:00 AM 53.6 °F 50.0 °F 88% 30.01 in 6.2 mi North 4.6 mph - N/A   Mostly Cloudy
1:30 AM 53.6 °F 50.0 °F 88% 30.01 in 6.2 mi North 6.9 mph - N/A   Mostly Cloudy
2:00 AM 52 °F 50 °F 91% 30.03 in - NNE 5.8 mph - -  
2:00 AM 51.8 °F 50.0 °F 94% 30.01 in - NNE 5.8 mph - N/A   Clear
2:30 AM 51.8 °F 50.0 °F 94% 30.01 in - Calm Calm - N/A   Clear
3:00 AM 52 °F 50 °F 89% 30.04 in 19 mi Calm Calm - -   Partly Cloudy
3:00 AM 51.8 °F 50.0 °F 94% 30.01 in - Calm Calm - N/A   Clear
3:30 AM 48.2 °F 48.2 °F 100% 30.04 in - North 4.6 mph - N/A   Clear
4:00 AM 49 °F 48 °F 93% 30.05 in - North 6.9 mph - -  
4:00 AM 48.2 °F 48.2 °F 100% 30.04 in - North 6.9 mph - N/A   Clear
4:30 AM 50.0 °F 48.2 °F 94% 30.04 in - North 10.4 mph - N/A   Clear
5:00 AM 48 °F 47 °F 93% 30.05 in - North 11.5 mph - -  
5:00 AM 48.2 °F 46.4 °F 93% 30.04 in - North 11.5 mph - N/A   Clear
5:30 AM 48.2 °F 46.4 °F 93% 30.04 in - North 11.5 mph - N/A   Clear
6:00 AM 50 °F 46 °F 81% 30.06 in 19 mi North 12.7 mph - -   Partly Cloudy
6:00 AM 50.0 °F 46.4 °F 87% 30.04 in - North 12.7 mph - N/A   Clear
6:30 AM 50.0 °F 46.4 °F 87% 30.04 in - North 13.8 mph - N/A   Clear
7:00 AM 50 °F 47 °F 86% 30.07 in - North 16.1 mph - -  
7:00 AM 50.0 °F 46.4 °F 87% 30.06 in - North 16.1 mph - N/A   Clear
7:30 AM 50.0 °F 48.2 °F 94% 30.06 in - North 13.8 mph - N/A   Clear
8:00 AM 53 °F 49 °F 84% 30.09 in - North 13.8 mph - -  
8:00 AM 53.6 °F 50.0 °F 88% 30.06 in 6.2 mi North 13.8 mph - N/A   Partly Cloudy
8:30 AM 55.4 °F 50.0 °F 82% 30.09 in 6.2 mi North 15.0 mph - N/A   Partly Cloudy
9:00 AM 57 °F 49 °F 68% 30.12 in 19 mi North 15.0 mph - -   Partly Cloudy
9:00 AM 57.2 °F 50.0 °F 77% 30.09 in 6.2 mi North 15.0 mph - N/A   Partly Cloudy
9:30 AM 59.0 °F 48.2 °F 67% 30.09 in 6.2 mi North 18.4 mph - N/A   Partly Cloudy
10:00 AM 60 °F 49 °F 59% 30.12 in - North 18.4 mph - -  
10:00 AM 60.8 °F 50.0 °F 68% 30.09 in 6.2 mi North 18.4 mph - N/A   Partly Cloudy
10:30 AM 62.6 °F 48.2 °F 59% 30.09 in 6.2 mi North 18.4 mph - N/A   Partly Cloudy
11:00 AM 66.2 °F 48.2 °F 52% 30.09 in 6.2 mi North 17.3 mph - N/A   Partly Cloudy
11:30 AM 66.2 °F 46.4 °F 49% 30.09 in 6.2 mi North 18.4 mph - N/A   Partly Cloudy
12:00 PM 66.2 °F 50.0 °F 56% 30.09 in 6.2 mi North 17.3 mph - N/A   Partly Cloudy
12:30 PM 69.8 °F 48.2 °F 46% 30.06 in 6.2 mi North 17.3 mph - N/A   Partly Cloudy
1:00 PM 69 °F 47 °F 34% 30.08 in - North 19.6 mph - -  
1:00 PM 69.8 °F 46.4 °F 43% 30.06 in 6.2 mi North 19.6 mph - N/A   Partly Cloudy
1:30 PM 69.8 °F 48.2 °F 46% 30.06 in 6.2 mi North 21.9 mph - N/A   Partly Cloudy
2:00 PM 69 °F 47 °F 35% 30.07 in - North 20.7 mph - -  
2:00 PM 69.8 °F 48.2 °F 46% 30.06 in 6.2 mi North 20.7 mph - N/A   Partly Cloudy
2:30 PM 69.8 °F 48.2 °F 46% 30.06 in 6.2 mi North 21.9 mph - N/A   Partly Cloudy
3:00 PM 70 °F 47 °F 33% 30.08 in 25 mi North 21.9 mph - -   Partly Cloudy
3:00 PM 69.8 °F 48.2 °F 46% 30.06 in 6.2 mi North 21.9 mph - N/A   Partly Cloudy
3:30 PM 69.8 °F 46.4 °F 43% 30.06 in 6.2 mi North 20.7 mph - N/A   Scattered Clouds
4:00 PM 69.8 °F 41.0 °F 35% 30.06 in 6.2 mi North 20.7 mph - N/A   Mostly Cloudy
4:30 PM 68.0 °F 48.2 °F 49% 30.06 in 6.2 mi North 18.4 mph - N/A   Mostly Cloudy
5:00 PM 67 °F 45 °F 33% 30.10 in - North 16.1 mph - -  
5:00 PM 66.2 °F 44.6 °F 46% 30.09 in 6.2 mi North 16.1 mph - N/A   Mostly Cloudy
5:30 PM 64.4 °F 48.2 °F 56% 30.09 in 6.2 mi North 19.6 mph - N/A   Mostly Cloudy
6:00 PM 63 °F 48 °F 48% 30.12 in 22 mi North 19.6 mph - -   Partly Cloudy
6:00 PM 62.6 °F 48.2 °F 59% 30.09 in - North 19.6 mph - N/A   Clear
6:13 PM 62.6 °F 48.2 °F 59% 30.09 in - North 18.4 mph 29.9 mph N/A   Clear
6:30 PM 62.6 °F 48.2 °F 59% 30.09 in - North 16.1 mph - N/A   Clear
7:00 PM 62 °F 48 °F 49% 30.14 in - North 15.0 mph - -  
7:00 PM 62.6 °F 48.2 °F 59% 30.12 in - North 15.0 mph - N/A   Clear
7:30 PM 60.8 °F 48.2 °F 63% 30.12 in - North 17.3 mph - N/A   Clear
8:00 PM 60 °F 48 °F 54% 30.15 in - North 17.3 mph - -  
8:00 PM 60.8 °F 48.2 °F 63% 30.12 in - North 17.3 mph - N/A   Clear
8:30 PM 59.0 °F 48.2 °F 67% 30.15 in - North 16.1 mph - N/A   Clear
9:00 PM 58 °F 47 °F 59% 30.17 in 19 mi North 17.3 mph - -   Partly Cloudy
9:00 PM 59.0 °F 48.2 °F 67% 30.15 in - North 17.3 mph - N/A   Clear
10:00 PM 59 °F 46 °F 52% 30.16 in - North 19.6 mph - -  
10:00 PM 59.0 °F 46.4 °F 63% 30.15 in - North 19.6 mph - N/A   Clear
11:00 PM 59 °F 45 °F 49% 30.17 in - North 17.3 mph - -  
11:00 PM 59.0 °F 44.6 °F 59% 30.15 in - North 17.3 mph - N/A   Clear
11:30 PM 59.0 °F 44.6 °F 59% 30.15 in - North 17.3 mph - N/A   Clear